Time,TemperatureF,DewpointF,PressureIn,WindDirection,WindDirectionDegrees,WindSpeedMPH,WindSpeedGustMPH,Humidity,HourlyPrecipIn,Conditions,Clouds,dailyrainin,SoftwareType,DateUTC
2013-04-10 00:12:00,56.8,36.3,29.99,South,190,0.0,2.0,46,0.00,,,0.00,meteohub,2013-04-10 04:12:00,
2013-04-10 00:17:00,56.7,36.1,29.99,SSE,168,0.0,4.0,46,0.00,,,0.00,meteohub,2013-04-10 04:17:00,
2013-04-10 00:22:00,56.7,36.7,29.99,ESE,122,0.0,4.0,47,0.00,,,0.00,meteohub,2013-04-10 04:22:00,
2013-04-10 00:27:00,56.3,36.3,29.99,SSW,212,0.0,4.0,47,0.00,,,0.00,meteohub,2013-04-10 04:27:00,
2013-04-10 00:32:00,56.1,36.1,29.99,SSE,168,0.0,2.0,47,0.00,,,0.00,meteohub,2013-04-10 04:32:00,
2013-04-10 00:37:00,56.1,36.1,29.99,SE,145,0.0,0.0,47,0.00,,,0.00,meteohub,2013-04-10 04:37:00,
2013-04-10 00:42:00,55.9,36.0,29.96,ESE,122,0.0,0.0,47,0.00,,,0.00,meteohub,2013-04-10 04:42:00,
2013-04-10 00:52:00,54.9,36.1,29.96,South,190,0.0,0.0,49,0.00,,,0.00,meteohub,2013-04-10 04:52:00,
2013-04-10 00:57:00,54.7,36.0,29.99,South,190,0.0,0.0,49,0.00,,,0.00,meteohub,2013-04-10 04:57:00,
2013-04-10 01:02:00,54.5,35.8,29.99,West,280,0.0,0.0,49,0.00,,,0.00,meteohub,2013-04-10 05:02:00,
2013-04-10 01:12:00,54.3,36.1,29.96,North,10,0.0,4.0,50,0.00,,,0.00,meteohub,2013-04-10 05:12:00,
2013-04-10 01:17:00,54.3,36.1,29.96,North,10,0.0,4.0,50,0.00,,,0.00,meteohub,2013-04-10 05:17:00,
2013-04-10 01:22:00,54.0,36.3,29.96,North,10,0.0,0.0,51,0.00,,,0.00,meteohub,2013-04-10 05:22:00,
2013-04-10 01:27:00,54.0,36.3,29.99,North,10,0.0,0.0,51,0.00,,,0.00,meteohub,2013-04-10 05:27:00,
2013-04-10 01:32:00,53.8,36.1,29.99,East,100,0.0,0.0,51,0.00,,,0.00,meteohub,2013-04-10 05:32:00,
2013-04-10 01:42:00,53.4,36.3,29.99,North,10,0.0,0.0,52,0.00,,,0.00,meteohub,2013-04-10 05:42:00,
2013-04-10 01:47:00,53.1,36.0,29.99,North,10,0.0,4.0,52,0.00,,,0.00,meteohub,2013-04-10 05:47:00,
2013-04-10 01:52:00,52.9,36.3,29.99,North,10,0.0,4.0,53,0.00,,,0.00,meteohub,2013-04-10 05:52:00,
2013-04-10 02:02:00,52.7,36.1,29.96,North,10,0.0,0.0,53,0.00,,,0.00,meteohub,2013-04-10 06:02:00,
2013-04-10 02:07:00,52.3,35.8,29.96,NE,55,0.0,0.0,53,0.00,,,0.00,meteohub,2013-04-10 06:07:00,
2013-04-10 02:17:00,52.2,36.0,29.99,ESE,122,0.0,0.0,54,0.00,,,0.00,meteohub,2013-04-10 06:17:00,
2013-04-10 02:27:00,51.6,35.6,29.99,WSW,258,0.0,0.0,54,0.00,,,0.00,meteohub,2013-04-10 06:27:00,
2013-04-10 02:32:00,51.4,35.8,29.99,SE,145,0.0,0.0,55,0.00,,,0.00,meteohub,2013-04-10 06:32:00,
2013-04-10 02:37:00,51.4,35.8,29.99,North,10,2.0,0.0,55,0.00,,,0.00,meteohub,2013-04-10 06:37:00,
2013-04-10 02:42:00,51.3,35.6,29.99,North,10,0.0,3.0,55,0.00,,,0.00,meteohub,2013-04-10 06:42:00,
2013-04-10 02:47:00,51.3,36.1,29.99,NE,55,0.0,3.0,56,0.00,,,0.00,meteohub,2013-04-10 06:47:00,
2013-04-10 02:52:00,51.1,36.0,29.99,NE,55,0.0,3.0,56,0.00,,,0.00,meteohub,2013-04-10 06:52:00,
2013-04-10 02:57:00,50.9,35.8,29.99,NE,55,0.0,0.0,56,0.00,,,0.00,meteohub,2013-04-10 06:57:00,
2013-04-10 03:07:00,50.9,35.8,29.99,NE,55,0.0,0.0,56,0.00,,,0.00,meteohub,2013-04-10 07:07:00,
2013-04-10 03:12:00,50.5,36.0,30.01,NE,55,0.0,0.0,57,0.00,,,0.00,meteohub,2013-04-10 07:12:00,
2013-04-10 03:17:00,50.4,35.8,30.01,NE,55,0.0,0.0,57,0.00,,,0.00,meteohub,2013-04-10 07:17:00,
2013-04-10 03:22:00,50.2,35.6,30.01,SSW,212,0.0,0.0,57,0.00,,,0.00,meteohub,2013-04-10 07:22:00,
2013-04-10 03:27:00,50.2,36.0,30.01,SSW,212,0.0,0.0,58,0.00,,,0.00,meteohub,2013-04-10 07:27:00,
2013-04-10 03:37:00,49.8,35.6,30.01,WSW,258,0.0,0.0,58,0.00,,,0.00,meteohub,2013-04-10 07:37:00,
2013-04-10 03:42:00,49.8,36.1,29.99,WSW,258,0.0,0.0,59,0.00,,,0.00,meteohub,2013-04-10 07:42:00,
2013-04-10 03:52:00,49.5,35.8,29.99,WNW,302,2.0,0.0,59,0.00,,,0.00,meteohub,2013-04-10 07:52:00,
2013-04-10 03:57:00,49.1,35.4,30.01,SE,145,2.0,2.0,59,0.00,,,0.00,meteohub,2013-04-10 07:57:00,
2013-04-10 04:07:00,48.7,35.4,30.01,ENE,78,0.0,4.0,60,0.00,,,0.00,meteohub,2013-04-10 08:07:00,
2013-04-10 04:12:00,48.7,35.4,30.01,NNE,32,0.0,5.0,60,0.00,,,0.00,meteohub,2013-04-10 08:12:00,
2013-04-10 04:17:00,48.6,35.8,30.01,North,10,0.0,5.0,61,0.00,,,0.00,meteohub,2013-04-10 08:17:00,
2013-04-10 04:27:00,48.4,35.6,30.01,SW,235,0.0,0.0,61,0.00,,,0.00,meteohub,2013-04-10 08:27:00,
2013-04-10 04:32:00,48.2,35.4,30.01,ENE,78,0.0,0.0,61,0.00,,,0.00,meteohub,2013-04-10 08:32:00,
2013-04-10 04:37:00,48.2,35.8,30.01,SSE,168,0.0,0.0,62,0.00,,,0.00,meteohub,2013-04-10 08:37:00,
2013-04-10 04:42:00,48.2,35.8,30.01,SSW,212,0.0,0.0,62,0.00,,,0.00,meteohub,2013-04-10 08:42:00,
2013-04-10 04:47:00,48.0,36.1,30.01,NNW,348,0.0,0.0,63,0.00,,,0.00,meteohub,2013-04-10 08:47:00,
2013-04-10 04:52:00,48.0,36.1,30.01,North,10,0.0,0.0,63,0.00,,,0.00,meteohub,2013-04-10 08:52:00,
2013-04-10 04:57:00,48.0,36.1,30.04,North,10,0.0,0.0,63,0.00,,,0.00,meteohub,2013-04-10 08:57:00,
2013-04-10 05:02:00,47.7,36.1,30.04,SSE,168,0.0,0.0,64,0.00,,,0.00,meteohub,2013-04-10 09:02:00,
2013-04-10 05:07:00,47.7,36.1,30.04,ENE,78,0.0,4.0,64,0.00,,,0.00,meteohub,2013-04-10 09:07:00,
2013-04-10 05:17:00,47.5,36.0,30.01,NE,55,0.0,4.0,64,0.00,,,0.00,meteohub,2013-04-10 09:17:00,
2013-04-10 05:22:00,47.3,35.8,30.01,ENE,78,0.0,4.0,64,0.00,,,0.00,meteohub,2013-04-10 09:22:00,
2013-04-10 05:32:00,47.3,36.1,30.01,North,10,0.0,0.0,65,0.00,,,0.00,meteohub,2013-04-10 09:32:00,
2013-04-10 05:37:00,47.3,36.1,30.01,NE,55,0.0,0.0,65,0.00,,,0.00,meteohub,2013-04-10 09:37:00,
2013-04-10 05:42:00,47.1,36.0,30.04,NE,55,0.0,0.0,65,0.00,,,0.00,meteohub,2013-04-10 09:42:00,
2013-04-10 05:47:00,47.1,36.0,30.04,NE,55,0.0,0.0,65,0.00,,,0.00,meteohub,2013-04-10 09:47:00,
2013-04-10 05:57:00,47.1,36.3,30.04,NE,55,0.0,2.0,66,0.00,,,0.00,meteohub,2013-04-10 09:57:00,
2013-04-10 06:02:00,46.9,36.1,30.04,NE,55,0.0,2.0,66,0.00,,,0.00,meteohub,2013-04-10 10:02:00,
2013-04-10 06:07:00,46.8,36.0,30.04,NE,55,0.0,2.0,66,0.00,,,0.00,meteohub,2013-04-10 10:07:00,
2013-04-10 06:17:00,46.6,35.8,30.04,East,100,0.0,0.0,66,0.00,,,0.00,meteohub,2013-04-10 10:17:00,
2013-04-10 06:22:00,46.6,36.3,30.04,East,100,0.0,0.0,67,0.00,,,0.00,meteohub,2013-04-10 10:22:00,
2013-04-10 06:27:00,46.4,36.1,30.01,East,100,0.0,0.0,67,0.00,,,0.00,meteohub,2013-04-10 10:27:00,
2013-04-10 06:32:00,46.4,36.1,30.01,SSW,212,0.0,0.0,67,0.00,,,0.00,meteohub,2013-04-10 10:32:00,
2013-04-10 06:42:00,45.9,35.6,30.01,WSW,258,0.0,0.0,67,0.00,,,0.00,meteohub,2013-04-10 10:42:00,
2013-04-10 06:52:00,45.5,35.2,30.01,ESE,122,0.0,0.0,67,0.00,,,0.00,meteohub,2013-04-10 10:52:00,
2013-04-10 06:57:00,45.5,35.6,30.01,ESE,122,0.0,0.0,68,0.00,,,0.00,meteohub,2013-04-10 10:57:00,
2013-04-10 07:02:00,45.5,35.6,30.01,SSE,168,0.0,0.0,68,0.00,,,0.00,meteohub,2013-04-10 11:02:00,
2013-04-10 07:07:00,45.5,35.6,30.01,South,190,0.0,0.0,68,0.00,,,0.00,meteohub,2013-04-10 11:07:00,
2013-04-10 07:12:00,45.5,35.6,30.04,SSE,168,0.0,0.0,68,0.00,,,0.00,meteohub,2013-04-10 11:12:00,
2013-04-10 07:17:00,45.5,35.6,30.04,SSE,168,0.0,0.0,68,0.00,,,0.00,meteohub,2013-04-10 11:17:00,
2013-04-10 07:22:00,45.3,35.4,30.04,South,190,0.0,0.0,68,0.00,,,0.00,meteohub,2013-04-10 11:22:00,
2013-04-10 07:27:00,45.3,35.4,30.04,South,190,0.0,0.0,68,0.00,,,0.00,meteohub,2013-04-10 11:27:00,
2013-04-10 07:32:00,45.3,35.4,30.04,WSW,258,0.0,0.0,68,0.00,,,0.00,meteohub,2013-04-10 11:32:00,
2013-04-10 07:37:00,45.3,35.4,30.04,West,280,0.0,0.0,68,0.00,,,0.00,meteohub,2013-04-10 11:37:00,
2013-04-10 07:42:00,45.5,36.0,30.04,West,280,0.0,0.0,69,0.00,,,0.00,meteohub,2013-04-10 11:42:00,
2013-04-10 07:47:00,45.5,36.0,30.04,West,280,0.0,0.0,69,0.00,,,0.00,meteohub,2013-04-10 11:47:00,
2013-04-10 07:52:00,45.5,36.0,30.04,West,280,0.0,0.0,69,0.00,,,0.00,meteohub,2013-04-10 11:52:00,
2013-04-10 08:02:00,45.5,36.3,30.04,WNW,302,0.0,0.0,70,0.00,,,0.00,meteohub,2013-04-10 12:02:00,
2013-04-10 08:07:00,45.5,36.3,30.04,North,10,0.0,4.0,70,0.00,,,0.00,meteohub,2013-04-10 12:07:00,
2013-04-10 08:12:00,45.7,36.5,30.04,NE,55,0.0,4.0,70,0.00,,,0.00,meteohub,2013-04-10 12:12:00,
2013-04-10 08:17:00,46.0,36.9,30.04,NE,55,0.0,4.0,70,0.00,,,0.00,meteohub,2013-04-10 12:17:00,
2013-04-10 08:22:00,46.2,37.0,30.04,NE,55,0.0,3.0,70,0.00,,,0.00,meteohub,2013-04-10 12:22:00,
2013-04-10 08:32:00,46.4,37.2,30.04,ESE,122,0.0,4.0,70,0.00,,,0.00,meteohub,2013-04-10 12:32:00,
2013-04-10 08:42:00,46.9,37.8,30.04,North,10,0.0,4.0,70,0.00,,,0.00,meteohub,2013-04-10 12:42:00,
2013-04-10 08:52:00,47.7,38.7,30.04,North,10,2.0,4.0,71,0.00,,,0.00,meteohub,2013-04-10 12:52:00,
2013-04-10 08:57:00,48.0,39.0,30.04,NNE,32,0.0,6.0,71,0.00,,,0.00,meteohub,2013-04-10 12:57:00,
2013-04-10 09:02:00,48.4,39.0,30.04,SW,235,0.0,6.0,70,0.00,,,0.00,meteohub,2013-04-10 13:02:00,
2013-04-10 09:12:00,49.6,40.3,30.04,NNE,32,2.0,5.0,70,0.00,,,0.00,meteohub,2013-04-10 13:12:00,
2013-04-10 09:17:00,50.2,40.5,30.04,NNW,348,4.0,5.0,69,0.00,,,0.00,meteohub,2013-04-10 13:17:00,
2013-04-10 09:22:00,50.7,41.0,30.04,North,10,0.0,5.0,69,0.00,,,0.00,meteohub,2013-04-10 13:22:00,
2013-04-10 09:32:00,52.2,41.9,30.04,WSW,258,2.0,5.0,68,0.00,,,0.00,meteohub,2013-04-10 13:32:00,
2013-04-10 09:37:00,52.9,42.6,30.04,North,10,4.0,5.0,68,0.00,,,0.00,meteohub,2013-04-10 13:37:00,
2013-04-10 09:42:00,53.6,43.0,30.04,North,10,3.0,6.0,67,0.00,,,0.00,meteohub,2013-04-10 13:42:00,
2013-04-10 09:52:00,55.4,44.2,30.04,West,280,0.0,6.0,66,0.00,,,0.00,meteohub,2013-04-10 13:52:00,
2013-04-10 10:02:00,57.7,46.4,30.04,WNW,302,3.0,7.0,66,0.00,,,0.00,meteohub,2013-04-10 14:02:00,
2013-04-10 10:07:00,60.3,48.0,30.04,NE,55,5.0,8.0,64,0.00,,,0.00,meteohub,2013-04-10 14:07:00,
2013-04-10 10:12:00,62.6,48.9,30.04,SW,235,6.0,8.0,61,0.00,,,0.00,meteohub,2013-04-10 14:12:00,
2013-04-10 10:17:00,64.0,49.5,30.04,West,280,7.0,11.0,59,0.00,,,0.00,meteohub,2013-04-10 14:17:00,
2013-04-10 10:27:00,66.6,48.9,30.01,SW,235,13.0,16.0,53,0.00,,,0.00,meteohub,2013-04-10 14:27:00,
2013-04-10 10:32:00,66.9,49.3,30.01,SW,235,9.0,16.0,53,0.00,,,0.00,meteohub,2013-04-10 14:32:00,
2013-04-10 10:42:00,68.4,49.5,30.01,North,10,6.0,19.0,51,0.00,,,0.00,meteohub,2013-04-10 14:42:00,
2013-04-10 10:47:00,68.9,49.5,30.01,ESE,122,2.0,19.0,50,0.00,,,0.00,meteohub,2013-04-10 14:47:00,
2013-04-10 10:52:00,69.3,49.3,30.01,WSW,258,16.0,17.0,49,0.00,,,0.00,meteohub,2013-04-10 14:52:00,
2013-04-10 10:57:00,70.0,48.9,30.01,SSW,212,6.0,16.0,47,0.00,,,0.00,meteohub,2013-04-10 14:57:00,
2013-04-10 11:02:00,70.5,48.7,30.01,NNW,348,24.0,24.0,46,0.00,,,0.00,meteohub,2013-04-10 15:02:00,
2013-04-10 11:12:00,71.2,48.7,30.01,SSW,212,19.0,24.0,45,0.00,,,0.00,meteohub,2013-04-10 15:12:00,
2013-04-10 11:17:00,71.8,49.3,30.01,West,280,3.0,24.0,45,0.00,,,0.00,meteohub,2013-04-10 15:17:00,
2013-04-10 11:22:00,72.3,49.8,30.01,WSW,258,5.0,22.0,45,0.00,,,0.00,meteohub,2013-04-10 15:22:00,
2013-04-10 11:27:00,72.7,49.5,30.01,WSW,258,11.0,21.0,44,0.00,,,0.00,meteohub,2013-04-10 15:27:00,
2013-04-10 11:32:00,73.0,49.8,29.99,SSW,212,15.0,19.0,44,0.00,,,0.00,meteohub,2013-04-10 15:32:00,
2013-04-10 11:42:00,73.6,49.1,29.99,SSW,212,16.0,24.0,42,0.00,,,0.00,meteohub,2013-04-10 15:42:00,
2013-04-10 11:47:00,73.6,49.1,29.99,NW,325,10.0,24.0,42,0.00,,,0.00,meteohub,2013-04-10 15:47:00,
2013-04-10 11:52:00,74.3,49.8,29.99,SW,235,22.0,22.0,42,0.00,,,0.00,meteohub,2013-04-10 15:52:00,
2013-04-10 11:57:00,74.3,49.1,29.99,WSW,258,6.0,22.0,41,0.00,,,0.00,meteohub,2013-04-10 15:57:00,
2013-04-10 12:02:00,74.8,50.2,29.99,WSW,258,5.0,22.0,42,0.00,,,0.00,meteohub,2013-04-10 16:02:00,
2013-04-10 12:12:00,75.6,50.2,29.99,SSW,212,8.0,21.0,41,0.00,,,0.00,meteohub,2013-04-10 16:12:00,
2013-04-10 12:17:00,75.7,50.4,29.99,South,190,16.0,21.0,41,0.00,,,0.00,meteohub,2013-04-10 16:17:00,
2013-04-10 12:22:00,75.9,48.6,29.99,WSW,258,9.0,21.0,38,0.00,,,0.00,meteohub,2013-04-10 16:22:00,
2013-04-10 12:27:00,76.6,49.1,29.99,NE,55,4.0,20.0,38,0.00,,,0.00,meteohub,2013-04-10 16:27:00,
2013-04-10 12:32:00,76.6,49.1,29.99,SSW,212,16.0,20.0,38,0.00,,,0.00,meteohub,2013-04-10 16:32:00,
2013-04-10 12:37:00,77.0,49.5,29.99,South,190,8.0,16.0,38,0.00,,,0.00,meteohub,2013-04-10 16:37:00,
2013-04-10 12:42:00,77.0,48.0,29.99,SW,235,13.0,17.0,36,0.00,,,0.00,meteohub,2013-04-10 16:42:00,
2013-04-10 12:52:00,77.4,48.4,29.99,SSW,212,9.0,26.0,36,0.00,,,0.00,meteohub,2013-04-10 16:52:00,
2013-04-10 12:57:00,77.7,47.8,29.99,WSW,258,5.0,26.0,35,0.00,,,0.00,meteohub,2013-04-10 16:57:00,
2013-04-10 13:02:00,77.9,48.7,29.99,SSW,212,7.0,21.0,36,0.00,,,0.00,meteohub,2013-04-10 17:02:00,
2013-04-10 13:07:00,78.1,48.2,29.99,WNW,302,13.0,20.0,35,0.00,,,0.00,meteohub,2013-04-10 17:07:00,
2013-04-10 13:12:00,78.1,48.2,29.99,SSW,212,8.0,16.0,35,0.00,,,0.00,meteohub,2013-04-10 17:12:00,
2013-04-10 13:17:00,77.9,47.3,29.99,WSW,258,5.0,21.0,34,0.00,,,0.00,meteohub,2013-04-10 17:17:00,
2013-04-10 13:27:00,79.0,47.5,29.99,WNW,302,11.0,21.0,33,0.00,,,0.00,meteohub,2013-04-10 17:27:00,
2013-04-10 13:37:00,79.0,47.5,29.99,WNW,302,16.0,16.0,33,0.00,,,0.00,meteohub,2013-04-10 17:37:00,
2013-04-10 13:47:00,80.2,47.7,29.96,WNW,302,9.0,25.0,32,0.00,,,0.00,meteohub,2013-04-10 17:47:00,
2013-04-10 13:57:00,80.2,47.7,29.96,NNW,348,4.0,19.0,32,0.00,,,0.00,meteohub,2013-04-10 17:57:00,
2013-04-10 14:07:00,80.4,47.1,29.96,SW,235,6.0,20.0,31,0.00,,,0.00,meteohub,2013-04-10 18:07:00,
2013-04-10 14:17:00,81.1,47.7,29.96,SSW,212,12.0,25.0,31,0.00,,,0.00,meteohub,2013-04-10 18:17:00,
2013-04-10 14:22:00,81.1,47.7,29.96,North,10,8.0,25.0,31,0.00,,,0.00,meteohub,2013-04-10 18:22:00,
2013-04-10 14:27:00,81.5,47.1,29.93,SW,235,11.0,25.0,30,0.00,,,0.00,meteohub,2013-04-10 18:27:00,
2013-04-10 14:37:00,81.9,47.5,29.93,WNW,302,6.0,22.0,30,0.00,,,0.00,meteohub,2013-04-10 18:37:00,
2013-04-10 14:42:00,82.2,47.7,29.93,WSW,258,19.0,22.0,30,0.00,,,0.00,meteohub,2013-04-10 18:42:00,
2013-04-10 14:52:00,82.6,47.1,29.93,WSW,258,10.0,19.0,29,0.00,,,0.00,meteohub,2013-04-10 18:52:00,
2013-04-10 14:57:00,82.2,47.7,29.93,WNW,302,14.0,19.0,30,0.00,,,0.00,meteohub,2013-04-10 18:57:00,
2013-04-10 15:02:00,82.4,46.9,29.93,WNW,302,12.0,21.0,29,0.00,,,0.00,meteohub,2013-04-10 19:02:00,
2013-04-10 15:12:00,82.8,47.3,29.93,NW,325,17.0,22.0,29,0.00,,,0.00,meteohub,2013-04-10 19:12:00,
2013-04-10 15:17:00,82.9,47.5,29.93,WNW,302,16.0,22.0,29,0.00,,,0.00,meteohub,2013-04-10 19:17:00,
2013-04-10 15:22:00,82.9,47.5,29.93,SW,235,8.0,20.0,29,0.00,,,0.00,meteohub,2013-04-10 19:22:00,
2013-04-10 15:27:00,83.1,47.7,29.90,SW,235,3.0,23.0,29,0.00,,,0.00,meteohub,2013-04-10 19:27:00,
2013-04-10 15:37:00,84.2,48.6,29.90,SSW,212,8.0,23.0,29,0.00,,,0.00,meteohub,2013-04-10 19:37:00,
2013-04-10 15:42:00,84.0,48.4,29.90,WNW,302,5.0,11.0,29,0.00,,,0.00,meteohub,2013-04-10 19:42:00,
2013-04-10 15:52:00,84.2,46.6,29.93,WNW,302,13.0,17.0,27,0.00,,,0.00,meteohub,2013-04-10 19:52:00,
2013-04-10 15:57:00,83.7,46.2,29.93,WNW,302,8.0,26.0,27,0.00,,,0.00,meteohub,2013-04-10 19:57:00,
2013-04-10 16:02:00,83.7,46.2,29.93,WNW,302,17.0,30.0,27,0.00,,,0.00,meteohub,2013-04-10 20:02:00,
2013-04-10 16:12:00,84.2,45.7,29.93,NNW,348,9.0,25.0,26,0.00,,,0.00,meteohub,2013-04-10 20:12:00,
2013-04-10 16:17:00,84.0,45.5,29.93,ENE,78,6.0,23.0,26,0.00,,,0.00,meteohub,2013-04-10 20:17:00,
2013-04-10 16:27:00,84.4,44.8,29.90,SSE,168,14.0,35.0,25,0.00,,,0.00,meteohub,2013-04-10 20:27:00,
2013-04-10 16:32:00,84.6,45.0,29.90,SSW,212,15.0,35.0,25,0.00,,,0.00,meteohub,2013-04-10 20:32:00,
2013-04-10 16:37:00,84.6,43.9,29.90,NW,325,7.0,22.0,24,0.00,,,0.00,meteohub,2013-04-10 20:37:00,
2013-04-10 16:47:00,84.4,44.8,29.87,WSW,258,12.0,21.0,25,0.00,,,0.00,meteohub,2013-04-10 20:47:00,
2013-04-10 16:57:00,84.7,44.1,29.87,West,280,11.0,21.0,24,0.00,,,0.00,meteohub,2013-04-10 20:57:00,
2013-04-10 17:07:00,84.7,44.1,29.87,SE,145,8.0,21.0,24,0.00,,,0.00,meteohub,2013-04-10 21:07:00,
2013-04-10 17:12:00,84.7,42.8,29.87,SE,145,5.0,21.0,23,0.00,,,0.00,meteohub,2013-04-10 21:12:00,
2013-04-10 17:22:00,84.9,41.9,29.87,WSW,258,3.0,21.0,22,0.00,,,0.00,meteohub,2013-04-10 21:22:00,
2013-04-10 17:27:00,85.1,43.2,29.87,NW,325,12.0,21.0,23,0.00,,,0.00,meteohub,2013-04-10 21:27:00,
2013-04-10 17:32:00,84.7,42.8,29.87,SSW,212,11.0,19.0,23,0.00,,,0.00,meteohub,2013-04-10 21:32:00,
2013-04-10 17:37:00,84.7,42.8,29.87,WNW,302,12.0,21.0,23,0.00,,,0.00,meteohub,2013-04-10 21:37:00,
2013-04-10 17:42:00,84.6,42.8,29.87,WNW,302,16.0,21.0,23,0.00,,,0.00,meteohub,2013-04-10 21:42:00,
2013-04-10 17:47:00,84.2,41.2,29.87,WSW,258,15.0,21.0,22,0.00,,,0.00,meteohub,2013-04-10 21:47:00,
2013-04-10 17:52:00,84.2,41.2,29.87,WNW,302,10.0,21.0,22,0.00,,,0.00,meteohub,2013-04-10 21:52:00,
2013-04-10 17:57:00,84.2,41.2,29.87,NW,325,6.0,21.0,22,0.00,,,0.00,meteohub,2013-04-10 21:57:00,
2013-04-10 18:07:00,84.2,41.2,29.87,WNW,302,11.0,21.0,22,0.00,,,0.00,meteohub,2013-04-10 22:07:00,
2013-04-10 18:12:00,83.8,41.0,29.87,SW,235,7.0,20.0,22,0.00,,,0.00,meteohub,2013-04-10 22:12:00,
2013-04-10 18:17:00,83.8,41.0,29.87,ENE,78,5.0,20.0,22,0.00,,,0.00,meteohub,2013-04-10 22:17:00,
2013-04-10 18:22:00,83.8,41.0,29.87,SSW,212,15.0,28.0,22,0.00,,,0.00,meteohub,2013-04-10 22:22:00,
2013-04-10 18:27:00,83.7,39.6,29.87,SW,235,4.0,28.0,21,0.00,,,0.00,meteohub,2013-04-10 22:27:00,
2013-04-10 18:32:00,83.3,39.4,29.87,WSW,258,5.0,15.0,21,0.00,,,0.00,meteohub,2013-04-10 22:32:00,
2013-04-10 18:37:00,83.3,39.4,29.87,South,190,13.0,20.0,21,0.00,,,0.00,meteohub,2013-04-10 22:37:00,
2013-04-10 18:42:00,82.9,39.0,29.87,WSW,258,10.0,20.0,21,0.00,,,0.00,meteohub,2013-04-10 22:42:00,
2013-04-10 18:47:00,82.9,39.0,29.87,South,190,16.0,24.0,21,0.00,,,0.00,meteohub,2013-04-10 22:47:00,
2013-04-10 18:52:00,82.6,38.7,29.87,SSW,212,5.0,24.0,21,0.00,,,0.00,meteohub,2013-04-10 22:52:00,
2013-04-10 18:57:00,82.4,38.7,29.87,WNW,302,6.0,24.0,21,0.00,,,0.00,meteohub,2013-04-10 22:57:00,
2013-04-10 19:07:00,82.0,38.3,29.87,SSW,212,8.0,20.0,21,0.00,,,0.00,meteohub,2013-04-10 23:07:00,
2013-04-10 19:12:00,81.7,37.9,29.87,SSE,168,6.0,17.0,21,0.00,,,0.00,meteohub,2013-04-10 23:12:00,
2013-04-10 19:22:00,81.0,37.4,29.87,WNW,302,6.0,18.0,21,0.00,,,0.00,meteohub,2013-04-10 23:22:00,
2013-04-10 19:27:00,80.8,37.2,29.87,South,190,7.0,15.0,21,0.00,,,0.00,meteohub,2013-04-10 23:27:00,
2013-04-10 19:32:00,80.4,36.9,29.87,South,190,4.0,17.0,21,0.00,,,0.00,meteohub,2013-04-10 23:32:00,
2013-04-10 19:37:00,79.7,36.3,29.87,SE,145,7.0,17.0,21,0.00,,,0.00,meteohub,2013-04-10 23:37:00,
2013-04-10 19:42:00,79.0,35.8,29.87,WSW,258,4.0,17.0,21,0.00,,,0.00,meteohub,2013-04-10 23:42:00,
2013-04-10 19:47:00,78.3,36.3,29.87,East,100,0.0,12.0,22,0.00,,,0.00,meteohub,2013-04-10 23:47:00,
2013-04-10 19:52:00,77.9,36.0,29.87,SSW,212,7.0,12.0,22,0.00,,,0.00,meteohub,2013-04-10 23:52:00,
2013-04-10 20:02:00,77.5,35.8,29.87,ESE,122,2.0,13.0,22,0.00,,,0.00,meteohub,2013-04-11 00:02:00,
2013-04-10 20:07:00,77.2,35.4,29.87,South,190,11.0,13.0,22,0.00,,,0.00,meteohub,2013-04-11 00:07:00,
2013-04-10 20:17:00,76.3,34.7,29.87,ENE,78,8.0,12.0,22,0.00,,,0.00,meteohub,2013-04-11 00:17:00,
2013-04-10 20:22:00,75.9,34.3,29.87,SW,235,2.0,11.0,22,0.00,,,0.00,meteohub,2013-04-11 00:22:00,
2013-04-10 20:27:00,75.6,34.2,29.87,SSE,168,6.0,10.0,22,0.00,,,0.00,meteohub,2013-04-11 00:27:00,
2013-04-10 20:32:00,75.4,34.0,29.87,SW,235,7.0,10.0,22,0.00,,,0.00,meteohub,2013-04-11 00:32:00,
2013-04-10 20:37:00,74.8,34.5,29.87,WSW,258,7.0,9.0,23,0.00,,,0.00,meteohub,2013-04-11 00:37:00,
2013-04-10 20:47:00,74.3,34.2,29.87,WNW,302,5.0,8.0,23,0.00,,,0.00,meteohub,2013-04-11 00:47:00,
2013-04-10 20:52:00,74.3,34.2,29.87,WSW,258,0.0,8.0,23,0.00,,,0.00,meteohub,2013-04-11 00:52:00,
2013-04-10 20:57:00,73.9,33.8,29.87,WSW,258,5.0,7.0,23,0.00,,,0.00,meteohub,2013-04-11 00:57:00,
2013-04-10 21:02:00,73.6,33.6,29.87,SSW,212,3.0,6.0,23,0.00,,,0.00,meteohub,2013-04-11 01:02:00,
2013-04-10 21:07:00,73.2,34.3,29.87,SW,235,3.0,7.0,24,0.00,,,0.00,meteohub,2013-04-11 01:07:00,
2013-04-10 21:17:00,72.1,33.4,29.87,ESE,122,2.0,5.0,24,0.00,,,0.00,meteohub,2013-04-11 01:17:00,
2013-04-10 21:22:00,71.8,34.2,29.87,SSE,168,0.0,5.0,25,0.00,,,0.00,meteohub,2013-04-11 01:22:00,
2013-04-10 21:27:00,71.4,33.8,29.87,SE,145,0.0,5.0,25,0.00,,,0.00,meteohub,2013-04-11 01:27:00,
2013-04-10 21:37:00,70.5,34.0,29.87,SE,145,4.0,5.0,26,0.00,,,0.00,meteohub,2013-04-11 01:37:00,
2013-04-10 21:47:00,69.8,34.3,29.84,NE,55,0.0,5.0,27,0.00,,,0.00,meteohub,2013-04-11 01:47:00,
2013-04-10 21:52:00,69.4,34.9,29.84,NE,55,0.0,4.0,28,0.00,,,0.00,meteohub,2013-04-11 01:52:00,
2013-04-10 21:57:00,69.1,34.7,29.87,North,10,0.0,3.0,28,0.00,,,0.00,meteohub,2013-04-11 01:57:00,
2013-04-10 22:02:00,68.5,35.1,29.87,East,100,0.0,4.0,29,0.00,,,0.00,meteohub,2013-04-11 02:02:00,
2013-04-10 22:07:00,68.4,34.9,29.87,East,100,2.0,5.0,29,0.00,,,0.00,meteohub,2013-04-11 02:07:00,
2013-04-10 22:17:00,68.0,35.4,29.87,East,100,0.0,5.0,30,0.00,,,0.00,meteohub,2013-04-11 02:17:00,
2013-04-10 22:22:00,67.5,35.8,29.87,ESE,122,0.0,4.0,31,0.00,,,0.00,meteohub,2013-04-11 02:22:00,
2013-04-10 22:27:00,67.1,35.4,29.87,SE,145,0.0,3.0,31,0.00,,,0.00,meteohub,2013-04-11 02:27:00,
2013-04-10 22:37:00,66.4,35.6,29.87,NNW,348,0.0,0.0,32,0.00,,,0.00,meteohub,2013-04-11 02:37:00,
2013-04-10 22:42:00,66.2,36.3,29.87,NNW,348,0.0,0.0,33,0.00,,,0.00,meteohub,2013-04-11 02:42:00,
2013-04-10 22:52:00,65.5,35.6,29.87,NNW,348,0.0,0.0,33,0.00,,,0.00,meteohub,2013-04-11 02:52:00,
2013-04-10 23:02:00,64.6,35.6,29.90,WNW,302,0.0,0.0,34,0.00,,,0.00,meteohub,2013-04-11 03:02:00,
2013-04-10 23:07:00,64.0,35.1,29.90,WNW,302,0.0,0.0,34,0.00,,,0.00,meteohub,2013-04-11 03:07:00,
2013-04-10 23:17:00,63.7,35.6,29.87,East,100,3.0,5.0,35,0.00,,,0.00,meteohub,2013-04-11 03:17:00,
2013-04-10 23:32:00,62.6,34.5,29.87,ENE,78,0.0,4.0,35,0.00,,,0.00,meteohub,2013-04-11 03:32:00,
2013-04-10 23:42:00,62.2,35.1,29.87,NNW,348,0.0,3.0,36,0.00,,,0.00,meteohub,2013-04-11 03:42:00,
2013-04-10 23:47:00,61.9,35.4,29.87,WSW,258,0.0,3.0,37,0.00,,,0.00,meteohub,2013-04-11 03:47:00,
2013-04-10 23:52:00,61.5,35.1,29.87,South,190,4.0,4.0,37,0.00,,,0.00,meteohub,2013-04-11 03:52:00,